Location: Allendale
(34.4298°N, 82.7582°W)
Time: 03:14:50
(UTC+00:00)

ISS - Visible Passes

Search period start: 24 May 2022 00:00
Search period end: 03 June 2022 00:00
Orbit: 414 x 421 km, 51.6° (Epoch: 24 May)

Date Brightness Start Highest point End Pass type
(mag) Time Alt. Az. Time Alt. Az. Time Alt. Az.
26 May -0.8 03:38:28 10° NNW 03:39:31 15° N 03:39:31 15° N visible
27 May -1.1 02:51:00 10° N 02:52:44 13° NNE 02:53:04 13° NE visible
28 May -1.0 03:38:27 10° NW 03:39:32 19° NNW 03:39:32 19° NNW visible
29 May -2.1 02:50:32 10° NNW 02:53:07 29° NNE 02:53:07 29° NNE visible
30 May -1.6 02:02:45 10° NNW 02:05:15 19° NNE 02:06:43 15° ENE visible
30 May -0.8 03:38:58 10° WNW 03:39:37 15° WNW 03:39:37 15° WNW visible
31 May -1.2 01:15:15 10° N 01:16:52 13° NNE 01:18:30 10° ENE visible
31 May -3.0 02:50:40 10° NW 02:53:15 50° NW 02:53:15 50° NW visible
01 Jun -3.3 02:02:33 10° NW 02:05:49 50° NE 02:06:55 33° E visible
02 Jun -2.3 01:14:33 10° NNW 01:17:32 28° NE 01:20:29 10° E visible
02 Jun -1.7 02:51:30 10° WNW 02:53:32 21° WSW 02:53:32 21° WSW visible
